Muscle Shoals, AL

8:21 PM CST on December 09, 2019 (GMT -0600)
Northwest Alabama Regional

Weather History for KMSL - November, 2019

Change the Weather History Date:

Tuesday, November 12, 2019

  Actual Average Record
Temperature  
Mean Temperature 29 °F 53 °F  
Max Temperature 35 °F 65 °F 82 °F (1938)
Min Temperature 22 °F 42 °F 16 °F (1894)
Degree Days  
Heating Degree Days 36 12  
Month to date heating degree days 202 124  
Since 1 July heating degree days 320 292  
Cooling Degree Days 0 0  
Month to date cooling degree days 0 4  
Year to date cooling degree days 2502 1868  
Moisture  
Dew Point 11 °F    
Average Humidity 52    
Maximum Humidity 68    
Minimum Humidity 36    
Precipitation  
Precipitation 0.02 in 0.13 in 2.68 in (1925)
Month to date precipitation 0.35 1.57  
Year to date precipitation 54.31 44.43  
Snow  
Snow 0.00 in - - ()
Month to date snowfall 0.0  
Since 1 July snowfall 0.0  
Since 1 September snowfall 0.0  
Snow Depth 0.00 in    
Sea Level Pressure  
Sea Level Pressure 30.35 in    
Wind  
Wind Speed 12 mph (North)    
Max Wind Speed 21 mph    
Max Gust Speed 30 mph    
Visibility 9 miles    
Events Rain    
T = Trace of Precipitation, MM = Missing Value Source: NWS Daily Summary

Daily Weather History Graph

Daily Weather History Graph

Search for Another Location

Airport or City:

Astronomy

Nov. 12, 2019 Rise Set
Actual Time 6:21 AM CST 4:47 PM CST
Civil Twilight 5:54 AM CST 5:14 PM CST
Nautical Twilight 5:24 AM CST 5:44 PM CST
Astronomical Twilight 4:54 AM CST 6:14 PM CST
Moon 5:13 PM CST (11/12) 6:14 AM CST (11/12)
Length of Visible Light 11h 19m
Length of Day
10h 26m
Full, 100% of the Moon is Illuminated
Nov 12
Full
Nov 19
Last Quarter
Nov 26
New
Dec 4
First Quarter
Dec 11
Full

Hourly Weather History & Observations

Time (CST) Temp. Windchill Dew Point Humidity Pressure Visibility Wind Dir Wind Speed Gust Speed Precip Events Conditions
12:02 AM 35.1 °F 25.9 °F - N/A% 30.20 in 7.0 mi North 13.8 mph 25.3 mph 0.01 in   Overcast
12:35 AM 34.0 °F 26.0 °F - N/A% 30.22 in 7.0 mi North 10.4 mph 23.0 mph 0.02 in   Overcast
12:43 AM 34.0 °F 26.0 °F - N/A% 30.22 in 4.0 mi NNW 10.4 mph 18.4 mph 0.02 in Rain Rain
12:53 AM 34.0 °F 26.0 °F - N/A% 30.22 in 2.0 mi NNW 10.4 mph 19.6 mph 0.02 in Rain Rain
1:04 AM 33.1 °F 25.5 °F - N/A% 30.23 in 3.0 mi NNW 9.2 mph 24.2 mph N/A Rain Rain
1:28 AM 33.1 °F 24.4 °F - N/A% 30.23 in 5.0 mi NNW 11.5 mph 21.9 mph N/A Rain Light Rain
1:41 AM 32.0 °F 24.2 °F - N/A% 30.24 in 6.0 mi North 9.2 mph 25.3 mph N/A   Overcast
1:53 AM 32.0 °F 22.1 °F - N/A% 30.24 in 10.0 mi NNW 13.8 mph 20.7 mph N/A   Overcast
2:07 AM 32.0 °F 22.1 °F - N/A% 30.25 in 10.0 mi NNW 13.8 mph 24.2 mph N/A   Overcast
2:17 AM 30.9 °F 21.7 °F - N/A% 30.25 in 10.0 mi North 11.5 mph 20.7 mph N/A   Overcast
2:53 AM 30.0 °F 18.3 °F - N/A% 30.26 in 10.0 mi NNW 17.3 mph 26.5 mph N/A   Overcast
3:51 AM 30.2 °F 20.8 °F - N/A% 30.28 in 10.0 mi North 11.5 mph 20.7 mph N/A   Overcast
3:53 AM 30.0 °F 19.1 °F - N/A% 30.28 in 10.0 mi North 15.0 mph 23.0 mph N/A   Overcast
4:53 AM 28.9 °F 16.9 °F - N/A% 30.32 in 10.0 mi North 17.3 mph 26.5 mph N/A   Overcast
5:53 AM 28.0 °F 17.5 °F - N/A% 30.35 in 10.0 mi NNW 12.7 mph 24.2 mph N/A   Overcast
6:53 AM 27.0 °F 14.7 °F - N/A% 30.39 in 10.0 mi North 16.1 mph 25.3 mph N/A   Overcast
7:53 AM 27.0 °F 18.0 °F - N/A% 30.41 in 10.0 mi North 9.2 mph 20.7 mph N/A   Overcast
8:41 AM 27.0 °F 15.2 °F - N/A% 30.42 in 10.0 mi NNE 15.0 mph 26.5 mph N/A   Scattered Clouds
8:53 AM 28.0 °F 15.7 °F - N/A% 30.43 in 10.0 mi NNE 17.3 mph 26.5 mph N/A   Clear
9:53 AM 27.0 °F 17.3 °F 18.0 °F 69% 30.45 in 10.0 mi North 10.4 mph - N/A   Mostly Cloudy
10:04 AM 28.0 °F 16.5 °F 17.1 °F 63% 30.44 in 10.0 mi NNW 15.0 mph 23.0 mph N/A   Scattered Clouds
10:53 AM 30.9 °F 21.7 °F 7.0 °F 37% 30.44 in 10.0 mi North 11.5 mph 19.6 mph N/A   Clear
11:53 AM 32.0 °F 21.2 °F 15.1 °F 50% 30.43 in 10.0 mi NNW 16.1 mph 21.9 mph N/A   Clear
12:53 PM 33.1 °F 23.9 °F 12.0 °F 42% 30.40 in 10.0 mi NNE 12.7 mph 24.2 mph N/A   Clear
1:53 PM 34.0 °F 25.0 °F 12.0 °F 40% 30.39 in 10.0 mi NNW 12.7 mph 17.3 mph N/A   Clear
2:53 PM 34.0 °F 25.5 °F 12.0 °F 40% 30.40 in 10.0 mi North 11.5 mph 19.6 mph N/A   Clear
3:53 PM 32.0 °F 22.1 °F 9.0 °F 38% 30.40 in 10.0 mi NNW 13.8 mph 20.7 mph N/A   Clear
4:53 PM 30.0 °F 21.7 °F 7.0 °F 38% 30.40 in 10.0 mi North 9.2 mph 17.3 mph N/A   Clear
5:53 PM 28.0 °F 20.8 °F 9.0 °F 45% 30.42 in 10.0 mi North 6.9 mph - N/A   Clear
6:53 PM 27.0 °F 18.0 °F 9.0 °F 47% 30.44 in 10.0 mi NNE 9.2 mph - N/A   Clear
7:53 PM 26.1 °F 15.6 °F 8.1 °F 47% 30.45 in 10.0 mi NNE 11.5 mph - N/A   Clear
8:53 PM 24.1 °F 12.5 °F 8.1 °F 51% 30.46 in 10.0 mi NNE 12.7 mph - N/A   Clear
10:53 PM 21.9 °F 15.7 °F 12.0 °F 66% 30.45 in 10.0 mi North 4.6 mph - N/A   Clear
11:53 PM 21.9 °F 13.4 °F 12.0 °F 66% 30.43 in 10.0 mi NNE 6.9 mph - N/A   Clear